Location: Home
(42.5358°N, 72.7383°W)
Time: 00:43:32
(UTC-05:00)

Vanguard 1 - Pass Details

Date: 02 December 2021
Orbit: 652 x 3830 km, 34.2° (Epoch: 21 January)

Event Time Altitude Azimuth Distance (km) Brightness Sun altitude
Rises 01:30:43 0° 250° (WSW) 7,696 - -59.2°
Reaches altitude 10° 01:35:46 10° 248° (WSW) 6,833 - -58.4°
Maximum altitude 01:59:00 66° 173° (S) 3,743 - -54.6°
Exits shadow 02:02:32 60° 136° (SE) 3,701 12.7 -54.0°
Drops below altitude 10° 02:16:09 10° 97° (E) 5,274 14.1 -51.7°
Sets 02:19:27 0° 94° (E) 5,943 14.6 -51.1°
